CST,Max TemperatureF,Mean TemperatureF,Min TemperatureF,Max Dew PointF,MeanDew PointF,Min DewpointF,Max Humidity, Mean Humidity, Min Humidity, Max Sea Level PressureIn, Mean Sea Level PressureIn, Min Sea Level PressureIn, Max VisibilityMiles, Mean VisibilityMiles, Min VisibilityMiles, Max Wind SpeedMPH, Mean Wind SpeedMPH, Max Gust SpeedMPH,PrecipitationIn, CloudCover, Events, WindDirDegrees
2014-1-1,47,34,20,32,23,17,92,65,37,30.35,30.22,30.03,10,10,7,12,4,21,0.00,0,,181
2014-1-2,44,30,15,43,26,8,100,88,71,30.24,29.95,29.80,10,4,1,21,9,33,0.27,8,Rain-Snow,292
2014-1-3,25,17,9,11,7,2,80,58,36,30.48,30.37,30.20,10,9,1,18,6,26,T,2,Snow,25
2014-1-4,40,30,20,38,19,7,92,64,35,30.32,30.23,30.11,10,10,5,16,9,26,0.00,2,,174
2014-1-5,49,35,21,45,35,19,100,88,76,30.13,29.88,29.66,10,6,0,24,10,37,0.23,8,Fog-Rain-Snow,214
2014-1-6,21,10,-2,18,1,-9,92,74,56,30.50,30.18,29.86,10,4,0,22,10,33,T,7,Snow,295
2014-1-7,16,4,-9,3,-4,-13,95,73,51,30.60,30.51,30.38,10,10,9,9,1,14,0.00,0,,250
2014-1-8,38,23,7,23,10,2,88,59,29,30.56,30.49,30.45,10,10,10,7,2,12,0.00,1,,164
2014-1-9,44,34,25,38,27,15,93,66,35,30.49,30.39,30.30,10,10,4,8,3,,0.00,6,,173
2014-1-10,51,45,39,50,45,39,100,93,86,30.28,30.12,29.83,10,7,2,10,6,22,0.00,8,Rain,175
2014-1-11,64,54,45,54,46,32,100,67,34,29.93,29.73,29.65,10,7,2,16,10,29,0.98,5,Rain-Thunderstorm,235
2014-1-12,66,50,34,35,31,26,82,52,22,30.12,30.05,29.93,10,9,4,9,5,16,0.00,0,,221
2014-1-13,57,50,42,43,39,30,92,63,33,30.03,29.90,29.79,10,7,2,15,7,24,0.71,7,Rain,180
2014-1-14,50,43,36,43,34,24,100,70,39,29.98,29.91,29.80,10,8,0,17,4,23,0.04,5,Fog-Rain,273
2014-1-15,37,28,19,30,22,13,89,70,51,30.10,30.03,29.98,10,10,10,16,5,23,0.00,5,,311
2014-1-16,39,27,14,30,16,11,96,68,40,30.07,29.97,29.87,10,9,2,15,5,23,T,4,Snow,189
2014-1-17,34,26,19,30,21,10,92,77,51,30.09,29.94,29.85,10,6,1,14,7,24,0.00,7,Snow,271
2014-1-18,37,25,13,15,11,6,88,59,29,30.16,30.02,29.87,10,10,9,15,7,23,T,5,,234
2014-1-19,41,37,33,27,25,19,75,58,40,30.08,29.99,29.85,10,10,10,14,7,20,0.00,4,,257
2014-1-20,57,45,32,26,24,19,64,46,28,29.99,29.91,29.78,10,10,10,12,5,16,0.00,0,,241
2014-1-21,47,32,16,30,19,-4,88,67,45,30.12,29.89,29.72,10,4,0,22,10,33,T,7,Fog-Snow,306
2014-1-22,21,11,1,7,0,-5,79,57,37,30.19,30.14,30.07,10,10,10,9,4,,0.00,3,,297
2014-1-23,16,11,3,10,3,-3,81,66,45,30.65,30.41,30.19,10,8,2,14,6,21,0.00,3,Snow,323
2014-1-24,25,11,-4,2,-2,-7,87,60,32,30.68,30.47,30.11,10,10,10,13,4,21,0.00,0,,207
2014-1-25,36,27,18,22,10,-2,74,53,32,30.06,29.87,29.77,10,9,2,18,7,28,T,6,Snow,241
2014-1-26,54,35,16,27,19,5,61,48,35,29.97,29.86,29.78,10,10,10,20,6,30,0.00,1,,205
2014-1-27,47,33,19,30,10,-6,69,48,27,30.28,30.05,29.78,10,10,10,16,10,22,0.00,3,,340
2014-1-28,15,10,6,7,3,-4,73,65,54,30.34,30.26,30.17,10,6,2,14,9,,0.00,7,Snow,359
2014-1-29,24,11,-2,-2,-5,-7,83,52,27,30.42,30.36,30.33,10,10,10,8,3,,0.00,0,,4
2014-1-30,36,19,1,10,3,-4,79,51,22,30.34,30.23,30.12,10,10,10,14,5,24,0.00,0,,175
2014-1-31,48,38,27,27,17,10,55,45,34,30.21,30.15,30.11,10,10,10,9,4,15,0.00,3,,177